TimePST,TemperatureF,Dew PointF,Humidity,Sea Level PressureIn,VisibilityMPH,Wind Direction,Wind SpeedMPH,Gust SpeedMPH,PrecipitationIn,Events,Conditions,WindDirDegrees,DateUTC
12:56 AM,33.1,18.0,54,30.40,10.0,ESE,8.1,17.3,N/A,,Clear,120,2013-01-19 08:56:00
1:56 AM,32.0,17.1,54,30.41,10.0,ESE,8.1,-,N/A,,Clear,120,2013-01-19 09:56:00
2:56 AM,32.0,17.1,54,30.41,10.0,ESE,11.5,-,N/A,,Clear,120,2013-01-19 10:56:00
3:56 AM,30.9,18.0,59,30.42,10.0,SE,11.5,21.9,N/A,,Clear,140,2013-01-19 11:56:00
4:56 AM,30.0,19.9,66,30.43,10.0,East,11.5,-,N/A,,Clear,100,2013-01-19 12:56:00
5:56 AM,28.9,19.9,69,30.43,10.0,ESE,11.5,-,N/A,,Clear,110,2013-01-19 13:56:00
6:56 AM,28.9,17.1,61,30.45,10.0,ESE,9.2,-,N/A,,Clear,110,2013-01-19 14:56:00
7:56 AM,30.9,17.1,57,30.46,10.0,SE,12.7,-,N/A,,Clear,130,2013-01-19 15:56:00
8:56 AM,28.9,19.9,69,30.48,10.0,ESE,9.2,-,N/A,,Clear,110,2013-01-19 16:56:00
9:56 AM,35.1,19.9,54,30.48,10.0,SE,11.5,-,N/A,,Clear,130,2013-01-19 17:56:00
10:52 AM,37.4,19.4,48,30.42,10.0,SE,11.5,23.0,N/A,,Clear,140,2013-01-19 18:52:00
10:56 AM,37.0,18.0,46,30.47,10.0,SSE,16.1,23.0,N/A,,Clear,150,2013-01-19 18:56:00
11:56 AM,39.0,18.0,43,30.44,10.0,SSE,9.2,-,N/A,,Clear,160,2013-01-19 19:56:00
12:56 PM,39.0,19.0,45,30.42,10.0,South,10.4,17.3,N/A,,Clear,180,2013-01-19 20:56:00
1:56 PM,39.9,18.0,41,30.42,10.0,South,6.9,-,N/A,,Clear,170,2013-01-19 21:56:00
2:56 PM,39.9,19.9,45,30.42,10.0,SW,4.6,-,N/A,,Clear,230,2013-01-19 22:56:00
3:56 PM,37.9,21.9,53,30.42,10.0,Calm,Calm,-,N/A,,Clear,0,2013-01-19 23:56:00
4:56 PM,35.1,21.0,57,30.42,10.0,South,3.5,-,N/A,,Clear,170,2013-01-20 00:56:00
5:56 PM,34.0,21.0,59,30.43,10.0,Calm,Calm,-,N/A,,Clear,0,2013-01-20 01:56:00
6:56 PM,32.0,19.9,61,30.45,10.0,ESE,5.8,-,N/A,,Clear,110,2013-01-20 02:56:00
7:56 PM,32.0,19.9,61,30.46,10.0,East,5.8,-,N/A,,Clear,100,2013-01-20 03:56:00
8:56 PM,30.0,19.9,66,30.47,10.0,Calm,Calm,-,N/A,,Clear,0,2013-01-20 04:56:00
9:56 PM,27.0,19.0,72,30.48,10.0,East,3.5,-,N/A,,Clear,80,2013-01-20 05:56:00
10:56 PM,28.9,19.9,69,30.49,10.0,SE,5.8,-,N/A,,Clear,130,2013-01-20 06:56:00
11:56 PM,30.9,21.0,67,30.49,10.0,SSE,5.8,-,N/A,,Clear,150,2013-01-20 07:56:00